SERIAL,TIME,MODEL,SN(OPTODE),OXYGEN,SATURATION,TEMPERATURE,CALPHASE,TCPHASE,C1RPH,C2RPH,C1AMP,C2AMP,RAWTEMP,CHECK
12,1336032119,4330,862,177.8305969238281200,52.2924804687500000,11.5099697113037110,37.1967582702636700,37.1924400329589840,41.6846809387207000,4.4922409057617190,823.5501098632812000,791.9180908203125000,370.1778869628906000,28478
12,1336033366,4330,862,180.0007934570312500,49.5278816223144500,8.6880273818969730,38.5781097412109400,38.5553817749023440,43.0279502868652340,4.4725718498229980,861.9069213867188000,822.4392089843750000,462.5129089355469000,8677
12,1336035106,4330,862,177.0511932373047000,49.0858306884765600,9.0019111633300780,38.6096305847168000,38.5864791870117200,43.0494499206543000,4.4629750251770020,862.5692749023438000,821.3568725585938000,452.3096008300781000,49470
12,1336035331,4330,862,173.2734069824218800,48.5171890258789060,9.4165306091308600,38.6506309509277340,38.6269416809082000,43.0927314758300800,4.4657897949218750,863.1771850585938000,816.8336181640625000,438.8031921386719000,24762
12,1336035592,4330,862,170.6352996826172000,48.3754501342773440,9.9399871826171880,38.5568389892578100,38.5343894958496100,43.0047302246093750,4.4703369140625000,860.1660156250000000,811.1511230468750000,421.7077941894531000,51845
12,1336035884,4330,862,170.0825042724609400,48.7449302673339840,10.4015703201293950,38.3470115661621100,38.3273582458496100,42.8000488281250000,4.4726867675781250,854.1813964843750000,805.8427124023438000,406.5953063964844000,40308
12,1336036104,4330,862,170.4842987060547000,49.3035583496093750,10.7887697219848630,38.1090316772460940,38.0925483703613300,42.5700988769531250,4.4775471687316895,847.7788696289062000,801.8834838867188000,393.8931884765625000,8386
12,1336036330,4330,862,172.8616027832031200,50.6176185607910160,11.3268299102783200,37.6478195190429700,37.6374816894531250,42.1202201843261700,4.4827418327331540,835.3588867187500000,796.6508178710938000,376.2066955566406000,65090
12,1336036567,4330,862,176.3081054687500000,52.3026618957519500,11.8941202163696290,37.1013412475585940,37.0982818603515600,41.5844612121582000,4.4861760139465330,820.5407104492188000,790.9857788085938000,357.5188903808594000,11494
12,1336036828,4330,862,182.4998931884765600,54.7142410278320300,12.3589200973510740,36.4277687072753900,36.4336891174316400,40.9249687194824200,4.4912800788879395,802.4580078125000000,785.0460815429688000,342.1806030273437500,12266
12,1336037075,4330,862,188.9459991455078000,57.2661590576171900,12.8415098190307620,35.7474594116210940,35.7624397277832000,40.2561607360839840,4.4937210083007810,784.1168823242188000,780.3029174804688000,326.2326049804687500,7253
12,1336037312,4330,862,196.2427978515625000,60.1033287048339840,13.3096799850463870,35.0407905578613300,35.0651893615722660,39.5648994445800800,4.4997019767761230,765.1409301757812000,775.6516723632812000,310.7417907714844000,20075
12,1336037549,4330,862,200.3347015380859400,61.8861083984375000,13.6970701217651370,34.5921592712402340,34.6225318908691400,39.1240081787109400,4.5014801025390625,752.8942871093750000,771.6159057617188000,297.9122924804687500,11689
12,1336037810,4330,862,204.1027984619140600,63.5700988769531250,14.0696601867675780,34.1786613464355500,34.2145500183105500,38.7205810546875000,4.5060348510742190,741.7211303710938000,767.8176269531250000,285.5638122558594000,30108
12,1336037865,4330,862,205.0691986083984400,64.0008697509765600,14.1621198654174800,34.0751686096191400,34.1124305725097660,38.6164093017578100,4.5039749145507810,738.7744750976562000,767.9234008789062000,282.4985046386719000,57111
12,1336038004,4330,862,205.7351989746093800,64.3392333984375000,14.2547502517700200,33.9899101257324200,34.0283088684082000,38.5345497131347660,4.5062332153320310,736.3782958984375000,765.2919921875000000,279.4271850585937500,15195
12,1336038138,4330,862,206.1746063232422000,64.7396392822265600,14.4408798217773440,33.8718299865722660,33.9118003845214840,38.4162597656250000,4.5044560432434080,733.1823730468750000,763.8590087890625000,273.2544860839844000,40436
12,1336038253,4330,862,206.7565002441406200,65.1431121826171900,14.5965700149536130,33.7612495422363300,33.8026885986328100,38.3111686706543000,4.5084838867187500,730.0983276367188000,762.2753906250000000,268.0899963378906000,27083
12,1336038370,4330,862,207.8448028564453000,65.7438583374023400,14.7773199081420900,33.6088294982910160,33.6523094177246100,38.1604003906250000,4.5080947875976560,726.0966186523438000,760.6190185546875000,262.0938110351562500,35122
12,1336038485,4330,862,208.3480987548828000,66.1647491455078100,14.9601297378540040,33.4903717041015600,33.5354194641113300,38.0434608459472660,4.5080342292785645,722.7645263671875000,758.7395019531250000,256.0278015136719000,28167
12,1336038588,4330,862,208.9548034667968800,66.5636367797851600,15.1036996841430660,33.3852386474609400,33.4316902160644500,37.9402809143066400,4.5085830688476560,719.9318237304688000,757.3850708007812000,251.2635955810547000,64070
12,1336038705,4330,862,209.8099060058593800,67.1036224365234400,15.2890596389770500,33.2463989257812500,33.2947006225585940,37.8066291809082000,4.5119252204895020,716.0595703125000000,755.7619018554688000,245.1118011474609400,63250
12,1336038820,4330,862,210.7207946777343800,67.7401733398437500,15.5269203186035160,33.0797996520996100,33.1303291320800800,37.6421089172363300,4.5117797851562500,711.4691772460938000,753.5654907226562000,237.2174987792968800,46725
12,1336038935,4330,862,210.6697998046875000,67.9968414306640600,15.7149400711059570,32.9922485351562500,33.0439414978027340,37.5602684020996100,4.5163350105285645,709.0482177734375000,751.4749145507812000,230.9768981933593800,31610
12,1336039040,4330,862,210.5877075195312500,68.2189178466796900,15.8860301971435550,32.9149398803710940,32.9676589965820300,37.4833793640136700,4.5157241821289060,706.8610229492188000,749.8875732421875000,225.2980957031250000,62133
12,1336039155,4330,862,213.0216064453125000,69.2424926757812500,16.0458602905273440,32.7014999389648440,32.7570610046386700,37.2740898132324200,4.5170211791992190,701.0825195312500000,748.3410034179688000,219.9931945800781200,953
12,1336039270,4330,862,217.2333984375000000,70.8854522705078100,16.2283401489257800,32.3826904296875000,32.4425010681152340,36.9600181579589840,4.5175170898437500,692.4370727539062000,746.5714721679688000,213.9369964599609400,60340
12,1336039388,4330,862,220.8807067871093800,72.3227920532226600,16.3901691436767580,32.1097984313964840,32.1732482910156250,36.6955604553222660,4.5223159790039060,685.2312011718750000,744.9365234375000000,208.5662994384765600,1365
12,1336039503,4330,862,221.0218963623047000,72.6020736694336000,16.5424995422363280,32.0309486389160160,32.0954399108886700,36.6154403686523440,4.5199971199035645,682.9204101562500000,743.4144287109375000,203.5115966796875000,7371
12,1336039618,4330,862,222.2373962402343800,73.2641372680664000,16.7132701873779300,31.8869304656982420,31.9533500671386720,36.4771308898925800,4.5237808227539060,679.0936279296875000,741.9547119140625000,197.8459014892578000,39936
12,1336039735,4330,862,225.4859924316406200,74.6298370361328100,16.9018497467041000,31.6291999816894530,31.6990509033203120,36.2224311828613300,4.5233840942382810,671.8690185546875000,740.2017822265625000,191.5899047851562500,55435
12,1336039862,4330,862,226.6681060791015600,75.1831436157226600,17.0049190521240230,31.5205593109130860,31.5918598175048830,36.1159210205078100,4.5240631103515625,668.9086303710938000,738.8527832031250000,188.1714019775390600,60254
12,1336039979,4330,862,228.6819000244140600,75.9841537475586000,17.0887603759765620,31.3790206909179700,31.4521999359130860,35.9762001037597660,4.5239939689636230,665.2086791992188000,738.0615234375000000,185.3907012939453000,13331
12,1336040106,4330,862,231.0373992919922000,76.9294662475586000,17.1902008056640620,31.2136898040771500,31.2890701293945300,35.8132705688476560,4.5241999626159670,660.6447753906250000,737.1455078125000000,182.0269012451172000,45435
12,1336040233,4330,862,233.0251007080078000,77.7729797363281200,17.3024692535400400,31.0631198883056640,31.1405105590820300,35.6646995544433600,4.5241928100585940,656.6951293945312000,736.1735229492188000,178.3043975830078000,36389
12,1336040374,4330,862,233.4261932373047000,78.0362091064453100,17.3822193145751950,31.0068092346191400,31.0849494934082030,35.6093902587890600,4.5244369506835940,655.2714233398438000,735.3552246093750000,175.6607055664062500,63272
12,1336040501,4330,862,233.5585021972656200,78.2168807983398400,17.4662799835205080,30.9622707366943360,31.0410003662109380,35.5646400451660160,4.5236358642578125,653.9166870117188000,734.5347900390625000,172.8742980957031200,22328
12,1336040642,4330,862,232.8424987792968800,78.1080398559570300,17.5471591949462900,30.9608898162841800,31.0396404266357420,35.5625801086425800,4.5229420661926270,653.9550170898438000,733.7700195312500000,170.1936950683593800,51230
12,1336040781,4330,862,232.7140960693359400,78.2370376586914000,17.6534900665283200,30.9190196990966800,30.9983291625976560,35.5227088928222660,4.5243759155273440,652.9553222656250000,732.8721923828125000,166.6703948974609400,25825
12,1336040910,4330,862,232.3367004394531200,78.2585220336914000,17.7452507019042970,30.8962898254394530,30.9759006500244140,35.5009918212890600,4.5250930786132810,652.3936767578125000,732.1784057617188000,163.6300964355468800,11771
12,1336041049,4330,862,231.9918975830078000,78.2823867797851600,17.8319492340087900,30.8742008209228500,30.9541091918945300,35.4777107238769500,4.5235981941223145,651.7296752929688000,731.3842163085938000,160.7581024169922000,26730
12,1336041152,4330,862,231.5700988769531200,78.2921371459961000,17.9262294769287100,30.8523807525634770,30.9325695037841800,35.4574089050293000,4.5248408317565920,651.2083129882812000,730.5999755859375000,157.6356048583984400,27146
12,1336041224,4330,862,231.1584930419922000,78.2732162475586000,18.0009193420410160,30.8392200469970700,30.9195899963378900,35.4456787109375000,4.5260848999023440,651.0391845703125000,731.0878295898438000,155.1618957519531200,59907
12,1336041295,4330,862,230.2196960449218800,78.2128295898437500,18.1613903045654300,30.8139095306396500,30.8946208953857420,35.4213294982910160,4.5267109870910645,650.2996215820312000,728.9166259765625000,149.8493041992187500,40847
12,1336041384,4330,862,233.4082031250000000,80.1724319458007800,18.6992702484130860,30.4158992767334000,30.5019092559814450,35.0329208374023440,4.5310130119323730,639.1340942382812000,725.6940917968750000,132.0561065673828000,63826
12,1336041483,4330,862,244.7053070068359400,84.7701568603515600,19.1184005737304700,29.6949291229248050,29.7905406951904300,34.3275604248046900,4.5370178222656250,619.1359252929688000,721.3801269531250000,118.2089996337890600,63311
12,1336041940,4330,862,259.6509094238281000,90.2951965332031200,19.3095607757568360,28.9483509063720700,29.0539207458496100,33.5915489196777340,4.5376358032226560,598.5836181640625000,717.5922241210938000,111.8991012573242200,21236
12,1336042122,4330,862,263.5263977050781000,91.7197875976562500,19.3511905670166000,28.7657203674316400,28.8737201690673830,33.4108505249023440,4.5371317863464355,593.8427734375000000,717.0921020507812000,110.5254974365234400,5640
12,1336042263,4330,862,264.5414123535156000,92.0834808349609400,19.3568401336669920,28.7208309173584000,28.8294200897216800,33.3672294616699200,4.5378108024597170,592.6411132812500000,717.0886230468750000,110.3392028808593800,34649
12,1336042371,4330,862,264.8338012695312500,92.1884078979492200,19.3585300445556640,28.7077808380126950,28.8165397644042970,33.3558197021484400,4.5392761230468750,592.5051269531250000,717.0167846679688000,110.2833023071289000,55208
12,1336042481,4330,862,264.9360046386719000,92.2231063842773400,19.3580608367919920,28.7037696838378900,28.8125896453857420,33.3509788513183600,4.5383911132812500,592.4691162109375000,717.0897216796875000,110.2990036010742200,58116
12,1336042589,4330,862,264.7524108886719000,92.1689834594726600,19.3633098602294920,28.7091503143310550,28.8178997039794920,33.3527793884277340,4.5348739624023440,592.4644775390625000,717.1461791992188000,110.1255035400390600,24948
12,1336042687,4330,862,265.2250061035156000,92.3413085937500000,19.3675098419189450,28.6875591278076170,28.7965908050537100,33.3336906433105500,4.5370941162109375,592.2349243164062000,717.1359863281250000,109.9869995117187500,22272
12,1336042797,4330,862,265.4226074218750000,92.4174804687500000,19.3715000152587900,28.6776294708251950,28.7868003845214840,33.3221206665039060,4.5353240966796875,591.9830932617188000,717.2359008789062000,109.8554000854492200,19851
12,1336042896,4330,862,265.3811950683594000,92.4027862548828100,19.3713302612304700,28.6795101165771500,28.7886505126953120,33.3243713378906250,4.5357208251953125,592.0211791992188000,717.2683715820312000,109.8610992431640600,46512
12,1336043004,4330,862,265.2781982421875000,92.3693084716796900,19.3726291656494140,28.6830806732177730,28.7921791076660160,33.3277702331543000,4.5355992317199710,592.1179809570312000,717.3226928710938000,109.8180007934570300,15501
12,1336043114,4330,862,265.4519042968750000,92.4305114746093800,19.3730106353759770,28.6759395599365230,28.7851295471191400,33.3196907043457000,4.5345540046691895,592.0897827148438000,717.4296875000000000,109.8054962158203100,51131
12,1336043231,4330,862,265.9476013183594000,92.6048431396484400,19.3739204406738280,28.6547203063964840,28.7641906738281250,33.3006095886230500,4.5364151000976560,591.8110961914062000,717.5587768554688000,109.7755966186523400,33531
12,1336043320,4330,862,265.7449951171875000,92.5346069335937500,19.3741302490234380,28.6631107330322270,28.7724704742431640,33.3040504455566400,4.5315861701965330,591.9616699218750000,717.4801025390625000,109.7687988281250000,9015
12,1336043376,4330,862,265.8768920898437500,92.5836334228515600,19.3757591247558600,28.6568298339843750,28.7662696838378900,33.3000602722168000,4.5337910652160645,591.9243774414062000,718.6043090820312000,109.7149963378906200,13811
12,1336043434,4330,862,265.8494873046875000,92.5785980224609400,19.3781700134277340,28.6570701599121100,28.7665100097656250,33.2995910644531250,4.5330810546875000,591.8917846679688000,718.5529785156250000,109.6353988647461000,35928
12,1336043489,4330,862,266.2905883789062500,92.7348327636718800,19.3795890808105470,28.6382007598876950,28.7478904724121100,33.2804183959960940,4.5325241088867190,591.3917236328125000,718.5819091796875000,109.5886001586914000,60135
12,1336043544,4330,862,266.8543090820312500,92.9352188110351600,19.3817806243896500,28.6137294769287100,28.7237491607666000,33.2552604675293000,4.5315170288085940,590.8115234375000000,718.5078125000000000,109.5160980224609400,28446
12,1336043599,4330,862,267.3565979003906000,93.1116104125976600,19.3825397491455080,28.5926094055175780,28.7029094696044920,33.2338600158691400,4.5309448242187500,590.2144775390625000,718.6275024414062000,109.4910964965820300,57310
12,1336043654,4330,862,267.9006958007812500,93.3071365356445300,19.3857593536376950,28.5687103271484380,28.6793308258056640,33.2104187011718750,4.5310897827148440,589.6469726562500000,718.6954956054688000,109.3849029541015600,59439
12,1336043709,4330,862,269.2029113769531000,93.7699279785156200,19.3906707763671880,28.5131492614746100,28.6245098114013670,33.1542091369628900,4.5296940803527830,588.0474243164062000,718.6578979492188000,109.2229995727539000,38539
12,1336043767,4330,862,270.0999145507812500,94.0913467407226600,19.3954200744628900,28.4743003845214840,28.5861797332763670,33.1163215637207000,4.5301361083984375,586.9899291992188000,718.7559814453125000,109.0662994384765600,28549
12,1336043823,4330,862,270.9082031250000000,94.3892364501953100,19.4039897918701170,28.4377593994140620,28.5501308441162100,33.0810699462890600,4.5309448242187500,586.1884765625000000,718.6937255859375000,108.7834014892578100,27211
12,1336043878,4330,862,271.6318969726562500,94.6502609252929700,19.4086608886718750,28.4063701629638670,28.5191497802734380,33.0491485595703100,4.5299987792968750,585.3840942382812000,718.6749267578125000,108.6293029785156200,60223
12,1336043933,4330,862,272.4168090820312500,94.9386367797851600,19.4164295196533200,28.3711795806884770,28.4844398498535160,33.0163917541503900,4.5319519042968750,584.4738769531250000,718.6834716796875000,108.3731994628906200,18872
12,1336043988,4330,862,273.0610046386719000,95.1791763305664000,19.4248199462890620,28.3416996002197270,28.4553508758544920,32.9857292175293000,4.5303878784179690,583.5637207031250000,718.6356201171875000,108.0964965820312500,40329
12,1336044043,4330,862,274.0501098632812500,95.5372772216796900,19.4317607879638670,28.2987194061279300,28.4129390716552730,32.9443092346191400,4.5313639640808105,582.5119018554688000,718.6090087890625000,107.8674011230468800,62955
12,1336044101,4330,862,274.8788146972656000,95.8388671875000000,19.4383602142334000,28.2627906799316400,28.3774890899658200,32.9079399108886700,4.5304570198059080,581.5745849609375000,718.6751708984375000,107.6498031616211000,9152
12,1336044156,4330,862,275.6087036132812500,96.1479492187500000,19.4666194915771500,28.2218399047851560,28.3370800018310550,32.8687400817871100,4.5316538810729980,580.4724121093750000,718.5910034179688000,106.7176971435546900,25505
12,1336044211,4330,862,276.7919006347656000,96.6566467285156200,19.5160598754882800,28.1538696289062500,28.2700195312500000,32.8018302917480500,4.5318069458007810,578.6090087890625000,718.3468017578125000,105.0873031616211000,38299
12,1336044266,4330,862,277.2090148925781000,97.0288772583007800,19.6325798034667970,28.0883998870849600,28.2054195404052730,32.7340011596679700,4.5285801887512210,576.7506713867188000,717.7009277343750000,101.2457962036132800,17560
12,1336044321,4330,862,277.2143859863281000,97.2523880004882800,19.7465305328369140,28.0404891967773440,28.1581497192382800,32.6905708312988300,4.5324168205261230,575.4033203125000000,716.9055786132812000,97.4903564453125000,35549
12,1336044376,4330,862,276.2477111816406000,97.3681564331054700,19.9810009002685550,27.9805507659912100,28.0990104675292970,32.6332397460937500,4.5342330932617190,573.8654174804688000,715.5443115234375000,89.7680969238281200,54776
12,1336044434,4330,862,275.5653991699219000,97.3102111816406200,20.0752696990966800,27.9682998657226560,28.0869197845459000,32.6237792968750000,4.5368580818176270,573.3112792968750000,714.2053222656250000,86.6653366088867200,9513
12,1336044489,4330,862,274.8414001464844000,97.2093963623046900,20.1554298400878900,27.9637107849121100,28.0823898315429700,32.6209182739257800,4.5385279655456540,573.2102050781250000,713.1912841796875000,84.0280532836914000,46604
12,1336044544,4330,862,273.5892944335937500,96.9851226806640600,20.2690296173095700,27.9662799835205080,28.0849208831787100,32.6246299743652340,4.5397028923034670,573.1306152343750000,712.4047241210938000,80.2915191650390600,49987
12,1336044599,4330,862,272.8673095703125000,96.8180389404296900,20.3153400421142580,27.9758796691894530,28.0944004058837900,32.6371612548828100,4.5427632331848145,573.4108276367188000,711.5623779296875000,78.7689971923828100,23248
12,1336044667,4330,862,272.3156127929687500,96.6650390625000000,20.3376407623291000,27.9888095855712900,28.1071491241455080,32.6497383117675800,4.5425868034362790,573.7691040039062000,711.0980834960938000,78.0358200073242200,38362
12,1336044757,4330,862,271.9396972656250000,96.5401535034179700,20.3421306610107420,28.0021095275878900,28.1202793121337900,32.6638717651367200,4.5435938835144040,574.1494750976562000,709.7612304687500000,77.8880996704101600,19150
12,1336044812,4330,862,271.8782958984375000,96.5206069946289000,20.3433094024658200,28.0039405822753900,28.1220893859863280,32.6670494079589840,4.5449681282043460,574.2391967773438000,710.6754150390625000,77.8494491577148400,41763
12,1336044867,4330,862,271.9762878417969000,96.5626068115234400,20.3470897674560550,27.9985599517822270,28.1167793273925780,32.6632690429687500,4.5464940071105960,574.3154296875000000,710.7416992187500000,77.7252273559570300,19930
12,1336044922,4330,862,271.8587036132812500,96.5212173461914000,20.3472499847412100,28.0031795501709000,28.1213302612304700,32.6628303527832000,4.5414958000183105,574.4741821289062000,710.8336181640625000,77.7199172973632800,62126
12,1336044977,4330,862,271.8515930175781000,96.5183181762695300,20.3470706939697270,28.0035305023193360,28.1216793060302730,32.6636695861816400,4.5419921875000000,574.5034790039062000,710.8195800781250000,77.7257308959961000,35013
12,1336045029,4330,862,272.0498962402344000,96.5864562988281200,20.3458690643310550,27.9959793090820300,28.1142292022705080,32.6577682495117200,4.5435328483581540,574.5341186523438000,710.9505004882812000,77.7650680541992200,11277
12,1336045077,4330,862,272.1213989257812500,96.6101837158203100,20.3449993133544920,27.9935607910156250,28.1118507385253900,32.6548194885253900,4.5429759025573730,574.6077880859375000,710.9976196289062000,77.7936935424804700,35951
12,1336045123,4330,862,271.9389038085937500,96.5439682006836000,20.3442802429199220,28.0010604858398440,28.1192398071289060,32.6607818603515600,4.5415420532226560,574.6165161132812000,711.0156250000000000,77.8173904418945300,65256
12,1336045169,4330,862,272.0010070800781000,96.5661392211914000,20.3443393707275400,27.9986400604248050,28.1168594360351560,32.6554603576660160,4.5386052131652830,574.6176147460938000,711.0158081054688000,77.8154220581054700,47306
12,1336045215,4330,862,272.1560058593750000,96.6202926635742200,20.3438796997070300,27.9925308227539060,28.1108303070068360,32.6539001464843750,4.5430679321289060,574.6558227539062000,711.2202758789062000,77.8304672241211000,59936
12,1336045261,4330,862,272.1531982421875000,96.6174468994140600,20.3429298400878900,27.9931907653808600,28.1114692687988280,32.6527290344238300,4.5412521362304690,574.7128295898438000,711.2393188476562000,77.8618469238281200,64165
12,1336045310,4330,862,272.2087097167969000,96.6368789672851600,20.3427791595459000,27.9909992218017580,28.1093101501464840,32.6496696472168000,4.5403590202331540,574.7634277343750000,709.7711181640625000,77.8668594360351600,39339
12,1336045385,4330,862,272.1871032714844000,96.6255874633789000,20.3408794403076170,27.9925308227539060,28.1108303070068360,32.6508903503418000,4.5400538444519040,574.8483276367188000,711.4752197265625000,77.9292068481445300,10883
12,1336046660,4330,862,268.5987854003906000,95.1963195800781200,20.2585906982421880,28.1722793579101560,28.2881908416748050,32.8225784301757800,4.5343928337097170,579.8532104492188000,711.4716796875000000,80.6346588134765600,33244
12,1336046680,4330,862,268.8564147949219000,95.3242263793945300,20.2779808044433600,28.1535491943359380,28.2696990966796880,32.8046417236328100,4.5349431037902830,579.5036010742188000,710.7694091796875000,79.9973678588867200,60877
12,1336046700,4330,862,268.7778930664062500,95.2567062377929700,20.2569808959960940,28.1657199859619140,28.2817096710205080,32.8186988830566400,4.5369868278503420,579.8012695312500000,710.4561767578125000,80.6876678466796900,33910
12,1336046720,4330,862,268.9707946777344000,95.3775329589843800,20.2847003936767580,28.1462593078613280,28.2625007629394530,32.8004913330078100,4.5379872322082520,579.1660766601562000,710.1207885742188000,79.7762832641601600,21106
12,1336046740,4330,862,268.7898864746094000,95.2076797485351600,20.2287902832031250,28.1769790649414060,28.2928199768066400,32.8282012939453100,4.5353851318359375,579.9965209960938000,709.9658813476562000,81.6147918701171900,5028
12,1336046760,4330,862,269.4397888183594000,95.4470977783203100,20.2336597442626950,28.1485099792480470,28.2647209167480470,32.8002700805664060,4.5355448722839355,579.3342285156250000,709.8848876953125000,81.4545822143554700,44054
12,1336046780,4330,862,268.3671875000000000,95.1256408691406200,20.2646503448486330,28.1792106628417970,28.2950191497802730,32.8288993835449200,4.5338749885559080,580.0462036132812000,709.7235717773438000,80.4356994628906200,9690